FPO712 ENNA-LFPG

Flight info

Callsign FPO712
Flight time 3h 36m
Altitude 12000
Route RADNO M609 LOTWA/N0465F340 N150 GAPRO DCT OGLAV DCT NOVRI DCT UPEVA DCT AGMOL/N0469F360 DCT NETAV DCT MAVIP DCT EGAGO/N0338F120 M125 ELVOM/N0461F360 P850 NEDZA/N0341F120 P601 NIROD/N0457F360 P601 EPILO/N0455F370 P614 MIKRO/N0455F360 N873 JUIST DCT PAM/N0455F370 N872 MEDIL
Aircraft B738/M-SDE2E3FGHIRWXY/LB1

Departure

Time 2026-05-06 02:52
Airport Lakselv Airport, Banak (ENNA)

Arrival

Time 2026-05-06 06:28
Airport Charles de Gaulle International Airport (LFPG)
Time Latitude Longitude Altitude Speed Heading
2026-05-06 02:22 70.06641 24.98048 30 ft 0 kts
2026-05-06 02:48 70.06681 24.97971 30 ft 10 kts 290°
2026-05-06 02:48 70.06682 24.97707 30 ft 14 kts 268°
2026-05-06 02:49 70.06691 24.97437 30 ft 13 kts 310°
2026-05-06 02:49 70.06780 24.97379 31 ft 14 kts 356°
2026-05-06 02:49 70.06889 24.97357 29 ft 20 kts 356°
2026-05-06 02:49 70.07044 24.97327 27 ft 24 kts 357°
2026-05-06 02:50 70.07204 24.97290 27 ft 23 kts 354°
2026-05-06 02:50 70.07358 24.97244 29 ft 22 kts 355°
2026-05-06 02:50 70.07510 24.97210 26 ft 22 kts 355°
2026-05-06 02:50 70.07676 24.97176 23 ft 26 kts 356°
2026-05-06 02:51 70.07849 24.97147 27 ft 24 kts 355°
2026-05-06 02:51 70.07989 24.97136 26 ft 12 kts
2026-05-06 02:51 70.08028 24.97059 26 ft 3 kts 237°
2026-05-06 02:51 70.07998 24.97076 27 ft 7 kts 157°
2026-05-06 02:52 70.07895 24.97119 27 ft 36 kts 175°
2026-05-06 02:52 70.07385 24.97237 30 ft 108 kts 175°
2026-05-06 02:52 70.06430 24.97469 48 ft 164 kts 175°
2026-05-06 02:52 70.05255 24.97665 717 ft 167 kts 177°
2026-05-06 02:53 70.04014 24.97851 1236 ft 191 kts 177°
2026-05-06 02:53 70.02633 24.98082 1689 ft 207 kts 176°
2026-05-06 02:53 70.01147 24.98383 2112 ft 222 kts 176°
2026-05-06 02:53 69.99577 24.98722 2692 ft 234 kts 176°
2026-05-06 02:54 69.97870 24.99074 3155 ft 251 kts 176°
2026-05-06 02:54 69.96141 24.98426 3969 ft 253 kts 206°
2026-05-06 02:54 69.94780 24.95180 4711 ft 259 kts 235°
2026-05-06 02:54 69.94114 24.90238 5251 ft 270 kts 265°
2026-05-06 02:55 69.94090 24.84942 6432 ft 255 kts 273°
2026-05-06 02:55 69.94180 24.79796 7313 ft 256 kts 275°
2026-05-06 02:55 69.94301 24.74494 7871 ft 267 kts 275°
2026-05-06 02:55 69.94408 24.69036 8609 ft 272 kts 275°
2026-05-06 02:56 69.94502 24.63531 9413 ft 273 kts 274°
2026-05-06 02:56 69.94576 24.57963 10142 ft 277 kts 274°
2026-05-06 02:56 69.94634 24.52154 10384 ft 298 kts 273°
2026-05-06 02:56 69.94680 24.45897 10576 ft 320 kts 272°
2026-05-06 02:57 69.94705 24.41511 10710 ft 333 kts 272°
2026-05-06 02:57 69.94734 24.34610 11076 ft 346 kts 272°
2026-05-06 02:57 69.94756 24.27567 11733 ft 349 kts 272°
2026-05-06 02:57 69.94773 24.20485 12503 ft 350 kts 272°
2026-05-06 02:58 69.94788 24.13364 13250 ft 352 kts 272°
2026-05-06 02:58 69.94799 24.06200 13914 ft 355 kts 271°
2026-05-06 02:58 69.94822 23.98988 14506 ft 358 kts 274°
2026-05-06 02:58 69.95068 23.91747 15084 ft 361 kts 279°
2026-05-06 02:59 69.95457 23.84488 15692 ft 364 kts 280°
2026-05-06 02:59 69.95869 23.77167 16307 ft 368 kts 279°
2026-05-06 02:59 69.96264 23.69786 16910 ft 372 kts 278°
2026-05-06 02:59 69.96636 23.62285 17493 ft 375 kts 278°
2026-05-06 03:00 69.96994 23.54704 18081 ft 379 kts 278°
2026-05-06 03:00 69.97226 23.47016 18547 ft 384 kts 267°
2026-05-06 03:00 69.96634 23.39421 19036 ft 389 kts 247°
2026-05-06 03:00 69.95229 23.32653 19554 ft 394 kts 231°
2026-05-06 03:01 69.93166 23.27347 20022 ft 399 kts 217°
2026-05-06 03:01 69.90884 23.22677 20519 ft 403 kts 216°
2026-05-06 03:01 69.88559 23.18066 20964 ft 407 kts 215°
2026-05-06 03:01 69.86207 23.13431 21428 ft 410 kts 215°
2026-05-06 03:02 69.83839 23.08751 21899 ft 413 kts 215°
2026-05-06 03:02 69.81457 23.04020 22351 ft 417 kts 215°
2026-05-06 03:02 69.79062 22.99243 22800 ft 420 kts 215°
2026-05-06 03:02 69.76650 22.94428 23220 ft 423 kts 215°
2026-05-06 03:03 69.74218 22.89572 23571 ft 426 kts 215°
2026-05-06 03:03 69.71771 22.84697 23921 ft 429 kts 215°
2026-05-06 03:03 69.69307 22.79798 24264 ft 432 kts 215°
2026-05-06 03:03 69.66826 22.74879 24617 ft 434 kts 215°
2026-05-06 03:04 69.64334 22.69954 24941 ft 436 kts 215°
2026-05-06 03:04 69.61822 22.65005 25280 ft 439 kts 215°
2026-05-06 03:04 69.59298 22.60046 25601 ft 441 kts 215°
2026-05-06 03:04 69.56758 22.55072 25909 ft 444 kts 215°
2026-05-06 03:05 69.54202 22.50080 26220 ft 446 kts 215°
2026-05-06 03:05 69.51634 22.45079 26520 ft 448 kts 215°
2026-05-06 03:05 69.49047 22.40058 26807 ft 450 kts 214°
2026-05-06 03:05 69.46449 22.35028 27083 ft 453 kts 214°
2026-05-06 03:06 69.43832 22.29979 27360 ft 455 kts 214°
2026-05-06 03:06 69.41203 22.24921 27623 ft 457 kts 214°
2026-05-06 03:06 69.38561 22.19851 27897 ft 460 kts 214°
2026-05-06 03:06 69.35907 22.14777 28177 ft 461 kts 214°
2026-05-06 03:07 69.33245 22.09700 28532 ft 461 kts 214°
2026-05-06 03:07 69.30585 22.04644 28941 ft 460 kts 214°
2026-05-06 03:07 69.27931 21.99611 29320 ft 460 kts 214°
2026-05-06 03:07 69.25272 21.94585 29657 ft 460 kts 214°
2026-05-06 03:08 69.22614 21.89574 29936 ft 460 kts 214°
2026-05-06 03:08 69.19948 21.84562 30206 ft 460 kts 214°
2026-05-06 03:08 69.17285 21.79574 30478 ft 460 kts 214°
2026-05-06 03:08 69.14618 21.74601 30736 ft 460 kts 214°
2026-05-06 03:09 69.11949 21.69647 31000 ft 460 kts 214°
2026-05-06 03:09 69.09279 21.64704 31251 ft 460 kts 214°
2026-05-06 03:09 69.06639 21.59830 31510 ft 460 kts 214°
2026-05-06 03:09 69.03932 21.54845 31777 ft 460 kts 214°
2026-05-06 03:10 69.01255 21.49928 32020 ft 460 kts 214°
2026-05-06 03:10 68.98621 21.45102 32268 ft 460 kts 214°
2026-05-06 03:10 68.95940 21.40206 32516 ft 460 kts 213°
2026-05-06 03:10 68.93262 21.35327 32747 ft 460 kts 213°
2026-05-06 03:11 68.90586 21.30466 32995 ft 460 kts 213°
2026-05-06 03:11 68.87905 21.25607 33236 ft 460 kts 213°
2026-05-06 03:11 68.85222 21.20763 33468 ft 460 kts 213°
2026-05-06 03:11 68.82539 21.15935 33698 ft 460 kts 213°
2026-05-06 03:12 68.79853 21.11113 33888 ft 460 kts 213°
2026-05-06 03:12 68.77169 21.06305 34082 ft 460 kts 213°
2026-05-06 03:12 68.74483 21.01505 34264 ft 460 kts 213°
2026-05-06 03:12 68.71800 20.96723 34449 ft 459 kts 213°
2026-05-06 03:13 68.69114 20.91949 34618 ft 460 kts 213°
2026-05-06 03:13 68.66428 20.87187 34794 ft 460 kts 213°
2026-05-06 03:13 68.63740 20.82436 34965 ft 460 kts 213°
2026-05-06 03:13 68.61052 20.77696 35124 ft 460 kts 213°
2026-05-06 03:14 68.58360 20.72962 35293 ft 460 kts 213°
2026-05-06 03:14 68.55669 20.68247 35463 ft 459 kts 213°
2026-05-06 03:14 68.52977 20.63545 35617 ft 459 kts 213°
2026-05-06 03:15 68.47567 20.54150 35687 ft 463 kts 213°
2026-05-06 03:15 68.42100 20.44709 35700 ft 467 kts 213°
2026-05-06 03:16 68.36592 20.35245 35692 ft 470 kts 213°
2026-05-06 03:16 68.31051 20.25779 35685 ft 472 kts 213°
2026-05-06 03:17 68.25491 20.16333 35684 ft 473 kts 213°
2026-05-06 03:17 68.19918 20.06921 35678 ft 473 kts 213°
2026-05-06 03:18 68.14341 19.97558 35680 ft 472 kts 213°
2026-05-06 03:18 68.08770 19.88258 35680 ft 471 kts 213°
2026-05-06 03:19 68.03205 19.79022 35678 ft 470 kts 212°
2026-05-06 03:19 67.97644 19.69845 35684 ft 469 kts 212°
2026-05-06 03:20 67.89355 19.56264 35695 ft 468 kts 212°
2026-05-06 03:20 67.83811 19.47244 35704 ft 467 kts 212°
2026-05-06 03:21 67.78264 19.38269 35716 ft 467 kts 212°
2026-05-06 03:21 67.72718 19.29347 35721 ft 467 kts 212°
2026-05-06 03:22 67.67165 19.20463 35728 ft 467 kts 212°
2026-05-06 03:22 67.61603 19.11615 35734 ft 467 kts 212°
2026-05-06 03:23 67.56032 19.02801 35741 ft 468 kts 212°
2026-05-06 03:23 67.50448 18.94017 35742 ft 468 kts 212°
2026-05-06 03:24 67.45588 18.86410 35750 ft 469 kts 212°
2026-05-06 03:24 67.39988 18.77691 35755 ft 469 kts 212°
2026-05-06 03:25 67.34387 18.69019 35754 ft 469 kts 212°
2026-05-06 03:25 67.28780 18.60384 35759 ft 469 kts 212°
2026-05-06 03:26 67.23163 18.51782 35766 ft 469 kts 212°
2026-05-06 03:26 67.17544 18.43224 35758 ft 469 kts 212°
2026-05-06 03:27 67.11930 18.34720 35768 ft 469 kts 212°
2026-05-06 03:27 67.06304 18.26244 35765 ft 469 kts 212°
2026-05-06 03:28 67.00675 18.17810 35766 ft 469 kts 212°
2026-05-06 03:28 66.95036 18.09405 35773 ft 469 kts 211°
2026-05-06 03:29 66.89396 18.01045 35772 ft 469 kts 211°
2026-05-06 03:29 66.83751 17.92722 35772 ft 469 kts 211°
2026-05-06 03:30 66.78102 17.84438 35768 ft 469 kts 211°
2026-05-06 03:30 66.72450 17.76192 35776 ft 469 kts 211°
2026-05-06 03:31 66.66829 17.68032 35776 ft 469 kts 211°
2026-05-06 03:31 66.61128 17.59803 35774 ft 469 kts 211°
2026-05-06 03:32 66.55497 17.51735 35779 ft 469 kts 211°
2026-05-06 03:32 66.49829 17.43657 35783 ft 469 kts 211°
2026-05-06 03:33 66.44161 17.35616 35778 ft 469 kts 211°
2026-05-06 03:33 66.38485 17.27602 35781 ft 468 kts 211°
2026-05-06 03:34 66.32808 17.19629 35776 ft 468 kts 211°
2026-05-06 03:34 66.27129 17.11696 35787 ft 468 kts 211°
2026-05-06 03:35 66.21450 17.03802 35773 ft 468 kts 211°
2026-05-06 03:35 66.15765 16.95943 35799 ft 468 kts 211°
2026-05-06 03:36 66.10082 16.88126 35791 ft 468 kts 211°
2026-05-06 03:36 66.04397 16.80347 35792 ft 468 kts 211°
2026-05-06 03:37 65.98707 16.72602 35797 ft 467 kts 211°
2026-05-06 03:37 65.93016 16.64895 35798 ft 467 kts 211°
2026-05-06 03:38 65.87328 16.57231 35792 ft 467 kts 211°
2026-05-06 03:38 65.81633 16.49596 35788 ft 467 kts 211°
2026-05-06 03:39 65.75941 16.42005 35796 ft 466 kts 211°
2026-05-06 03:39 65.70248 16.34450 35785 ft 466 kts 210°
2026-05-06 03:40 65.64548 16.26925 35786 ft 466 kts 210°
2026-05-06 03:40 65.58847 16.19435 35788 ft 466 kts 210°
2026-05-06 03:41 65.53141 16.11977 35786 ft 466 kts 210°
2026-05-06 03:41 65.48397 16.05805 35784 ft 466 kts 210°
2026-05-06 03:42 65.42692 15.98416 35781 ft 466 kts 210°
2026-05-06 03:42 65.36026 15.89829 35788 ft 465 kts 210°
2026-05-06 03:43 65.30317 15.82515 35783 ft 465 kts 210°
2026-05-06 03:43 65.25574 15.76465 35797 ft 465 kts 210°
2026-05-06 03:44 65.19859 15.69208 35788 ft 465 kts 210°
2026-05-06 03:44 65.14150 15.61995 35791 ft 465 kts 210°
2026-05-06 03:45 65.08439 15.54815 35795 ft 464 kts 210°
2026-05-06 03:45 65.02729 15.47670 35799 ft 464 kts 210°
2026-05-06 03:46 64.97018 15.40559 35803 ft 464 kts 210°
2026-05-06 03:46 64.91307 15.33482 35812 ft 464 kts 210°
2026-05-06 03:47 64.85586 15.26426 35810 ft 464 kts 210°
2026-05-06 03:47 64.79868 15.19407 35818 ft 463 kts 210°
2026-05-06 03:48 64.74150 15.12419 35827 ft 463 kts 210°
2026-05-06 03:48 64.68427 15.05468 35827 ft 463 kts 210°
2026-05-06 03:49 64.62705 14.98560 35837 ft 463 kts 210°
2026-05-06 03:49 64.56981 14.91678 35834 ft 463 kts 210°
2026-05-06 03:50 64.51258 14.84827 35848 ft 463 kts 210°
2026-05-06 03:50 64.45535 14.78006 35848 ft 462 kts 210°
2026-05-06 03:51 64.39813 14.71220 35852 ft 462 kts 210°
2026-05-06 03:51 64.34091 14.64465 35861 ft 462 kts 210°
2026-05-06 03:52 64.28367 14.57739 35861 ft 461 kts 210°
2026-05-06 03:52 64.22648 14.51051 35871 ft 461 kts 210°
2026-05-06 03:53 64.16930 14.44395 35872 ft 460 kts 210°
2026-05-06 03:53 64.11219 14.37776 35880 ft 460 kts 210°
2026-05-06 03:54 64.05507 14.31185 35880 ft 460 kts 210°
2026-05-06 03:54 63.99796 14.24627 35891 ft 459 kts 210°
2026-05-06 03:55 63.94091 14.18106 35891 ft 459 kts 210°
2026-05-06 03:55 63.88388 14.11614 35892 ft 458 kts 210°
2026-05-06 03:56 63.82687 14.05149 35905 ft 458 kts 209°
2026-05-06 03:56 63.76992 13.98719 35908 ft 457 kts 209°
2026-05-06 03:57 63.71301 13.92322 35916 ft 457 kts 209°
2026-05-06 03:57 63.65607 13.85952 35913 ft 457 kts 209°
2026-05-06 03:58 63.59914 13.79612 35917 ft 456 kts 209°
2026-05-06 03:58 63.54222 13.73300 35925 ft 456 kts 209°
2026-05-06 03:59 63.48529 13.67016 35926 ft 456 kts 209°
2026-05-06 03:59 63.42840 13.60764 35927 ft 455 kts 209°
2026-05-06 04:00 63.37157 13.54546 35926 ft 455 kts 209°
2026-05-06 04:00 63.31477 13.48359 35933 ft 454 kts 209°
2026-05-06 04:01 63.25798 13.42200 35946 ft 454 kts 209°
2026-05-06 04:01 63.20121 13.36070 35945 ft 454 kts 209°
2026-05-06 04:02 63.14445 13.29969 35950 ft 453 kts 209°
2026-05-06 04:02 63.08765 13.23888 35949 ft 453 kts 209°
2026-05-06 04:03 63.03095 13.17843 35953 ft 453 kts 209°
2026-05-06 04:03 62.97423 13.11822 35954 ft 452 kts 209°
2026-05-06 04:04 62.91680 13.06358 35959 ft 455 kts 202°
2026-05-06 04:04 62.85643 13.02108 35964 ft 456 kts 201°
2026-05-06 04:05 62.79599 12.97922 35962 ft 455 kts 201°
2026-05-06 04:05 62.73567 12.93704 35971 ft 455 kts 202°
2026-05-06 04:06 62.67544 12.89472 35973 ft 455 kts 202°
2026-05-06 04:06 62.61523 12.85252 35972 ft 454 kts 202°
2026-05-06 04:07 62.55506 12.81053 35979 ft 454 kts 202°
2026-05-06 04:07 62.49488 12.76873 35983 ft 454 kts 202°
2026-05-06 04:08 62.43469 12.72710 35969 ft 454 kts 202°
2026-05-06 04:08 62.37449 12.68564 35979 ft 454 kts 202°
2026-05-06 04:09 62.31441 12.64445 35974 ft 453 kts 202°
2026-05-06 04:09 62.25429 12.60339 35981 ft 453 kts 202°
2026-05-06 04:10 62.19424 12.56255 35977 ft 453 kts 202°
2026-05-06 04:10 62.13422 12.52191 35983 ft 452 kts 202°
2026-05-06 04:11 62.07471 12.48178 35982 ft 451 kts 202°
2026-05-06 04:11 62.01480 12.44154 35990 ft 451 kts 202°
2026-05-06 04:12 61.95499 12.40153 35974 ft 451 kts 202°
2026-05-06 04:12 61.89518 12.36168 35983 ft 450 kts 202°
2026-05-06 04:13 61.83543 12.32204 35984 ft 450 kts 202°
2026-05-06 04:13 61.77569 12.28256 35982 ft 449 kts 202°
2026-05-06 04:14 61.71603 12.24327 35984 ft 449 kts 202°
2026-05-06 04:14 61.65632 12.20461 35985 ft 450 kts 201°
2026-05-06 04:15 61.59584 12.17009 35983 ft 451 kts 200°
2026-05-06 04:15 61.53513 12.13670 35970 ft 451 kts 200°
2026-05-06 04:16 61.47453 12.10302 35971 ft 451 kts 200°
2026-05-06 04:16 61.41406 12.06916 35979 ft 450 kts 200°
2026-05-06 04:17 61.35359 12.03534 35985 ft 450 kts 200°
2026-05-06 04:17 61.29319 12.00168 35988 ft 450 kts 200°
2026-05-06 04:18 61.23274 11.96816 35971 ft 449 kts 201°
2026-05-06 04:18 61.17232 11.93481 35976 ft 449 kts 201°
2026-05-06 04:19 61.11199 11.90162 35974 ft 448 kts 201°
2026-05-06 04:19 61.05180 11.86864 35988 ft 447 kts 201°
2026-05-06 04:20 60.99161 11.83578 35977 ft 447 kts 201°
2026-05-06 04:20 60.93150 11.80309 35978 ft 446 kts 201°
2026-05-06 04:21 60.87157 11.77062 35985 ft 445 kts 201°
2026-05-06 04:21 60.81153 11.73952 35984 ft 447 kts 198°
2026-05-06 04:22 60.75041 11.71570 35974 ft 447 kts 197°
2026-05-06 04:23 60.65900 11.68120 35983 ft 445 kts 197°
2026-05-06 04:23 60.59823 11.65778 35980 ft 444 kts 197°
2026-05-06 04:24 60.53760 11.63444 35976 ft 443 kts 197°
2026-05-06 04:24 60.47822 11.60504 35991 ft 437 kts 203°
2026-05-06 04:25 60.42012 11.56890 35978 ft 436 kts 203°
2026-05-06 04:25 60.36209 11.53293 35972 ft 436 kts 203°
2026-05-06 04:26 60.31391 11.50346 35975 ft 436 kts 203°
2026-05-06 04:26 60.25585 11.46825 35964 ft 436 kts 203°
2026-05-06 04:27 60.19786 11.43325 35968 ft 435 kts 203°
2026-05-06 04:27 60.13985 11.39836 35969 ft 435 kts 203°
2026-05-06 04:28 60.08183 11.36359 35966 ft 435 kts 203°
2026-05-06 04:28 60.02381 11.32895 35969 ft 435 kts 203°
2026-05-06 04:29 59.96581 11.29444 35970 ft 435 kts 203°
2026-05-06 04:29 59.90782 11.26006 35973 ft 435 kts 203°
2026-05-06 04:30 59.84982 11.22580 35982 ft 435 kts 203°
2026-05-06 04:30 59.79176 11.19162 35969 ft 435 kts 203°
2026-05-06 04:31 59.73381 11.15763 35973 ft 434 kts 203°
2026-05-06 04:31 59.67833 11.11399 35974 ft 424 kts 215°
2026-05-06 04:32 59.63140 11.04617 35997 ft 416 kts 226°
2026-05-06 04:32 59.58839 10.97096 35987 ft 416 kts 226°
2026-05-06 04:33 59.54491 10.89548 35981 ft 417 kts 225°
2026-05-06 04:33 59.50121 10.82035 35987 ft 417 kts 225°
2026-05-06 04:34 59.45743 10.74552 35987 ft 417 kts 225°
2026-05-06 04:34 59.41361 10.67089 35989 ft 417 kts 225°
2026-05-06 04:35 59.36974 10.59645 35987 ft 417 kts 225°
2026-05-06 04:35 59.32579 10.52212 35986 ft 417 kts 225°
2026-05-06 04:36 59.28184 10.44804 35973 ft 417 kts 225°
2026-05-06 04:36 59.23781 10.37405 35965 ft 417 kts 225°
2026-05-06 04:37 59.19358 10.30058 35960 ft 419 kts 221°
2026-05-06 04:37 59.14262 10.24310 35956 ft 429 kts 208°
2026-05-06 04:38 59.08527 10.20695 35959 ft 435 kts 203°
2026-05-06 04:38 59.02740 10.17299 35971 ft 435 kts 203°
2026-05-06 04:39 58.96952 10.13860 35965 ft 435 kts 204°
2026-05-06 04:39 58.91179 10.10404 35971 ft 434 kts 204°
2026-05-06 04:40 58.85406 10.06951 35978 ft 434 kts 204°
2026-05-06 04:40 58.79631 10.03509 35972 ft 434 kts 203°
2026-05-06 04:41 58.73853 10.00078 35969 ft 434 kts 203°
2026-05-06 04:41 58.68077 9.96661 35970 ft 434 kts 203°
2026-05-06 04:42 58.62307 9.93258 36020 ft 432 kts 203°
2026-05-06 04:42 58.56614 9.89918 35973 ft 425 kts 203°
2026-05-06 04:43 58.50974 9.86613 35969 ft 423 kts 203°
2026-05-06 04:43 58.45350 9.83324 35973 ft 422 kts 203°
2026-05-06 04:44 58.39732 9.80048 35968 ft 423 kts 202°
2026-05-06 04:44 58.34104 9.76779 35967 ft 423 kts 202°
2026-05-06 04:45 58.28461 9.73513 35971 ft 424 kts 202°
2026-05-06 04:45 58.22814 9.70255 35967 ft 425 kts 202°
2026-05-06 04:46 58.17154 9.67001 35967 ft 425 kts 202°
2026-05-06 04:46 58.11495 9.63756 35969 ft 425 kts 202°
2026-05-06 04:47 58.05825 9.60519 35967 ft 425 kts 202°
2026-05-06 04:47 58.00154 9.57297 35966 ft 426 kts 202°
2026-05-06 04:48 57.94485 9.54086 35968 ft 426 kts 202°
2026-05-06 04:48 57.88812 9.50881 35970 ft 425 kts 202°
2026-05-06 04:49 57.83141 9.47687 35964 ft 425 kts 202°
2026-05-06 04:49 57.77470 9.44503 35963 ft 425 kts 202°
2026-05-06 04:50 57.71799 9.41330 35963 ft 426 kts 201°
2026-05-06 04:50 57.66121 9.38163 35966 ft 426 kts 201°
2026-05-06 04:51 57.60440 9.35004 35965 ft 426 kts 201°
2026-05-06 04:51 57.54758 9.31856 35963 ft 426 kts 201°
2026-05-06 04:52 57.49065 9.28710 35963 ft 427 kts 201°
2026-05-06 04:52 57.43422 9.25335 35966 ft 425 kts 205°
2026-05-06 04:53 57.37922 9.21348 35963 ft 425 kts 205°
2026-05-06 04:53 57.32414 9.17366 35965 ft 425 kts 205°
2026-05-06 04:54 57.26885 9.13450 35969 ft 426 kts 203°
2026-05-06 04:54 57.21143 9.10504 35963 ft 429 kts 199°
2026-05-06 04:55 57.15343 9.07788 35969 ft 430 kts 199°
2026-05-06 04:55 57.09556 9.05052 35967 ft 429 kts 199°
2026-05-06 04:56 57.03775 9.02297 35963 ft 429 kts 199°
2026-05-06 04:56 56.97996 8.99541 35968 ft 429 kts 199°
2026-05-06 04:57 56.92264 8.96817 35972 ft 428 kts 199°
2026-05-06 04:57 56.86504 8.94088 35973 ft 427 kts 199°
2026-05-06 04:58 56.80752 8.91372 35972 ft 427 kts 199°
2026-05-06 04:58 56.75007 8.88667 35974 ft 426 kts 199°
2026-05-06 04:59 56.69277 8.85901 35973 ft 425 kts 200°
2026-05-06 04:59 56.63606 8.82892 35973 ft 424 kts 201°
2026-05-06 05:00 56.57942 8.79861 35966 ft 424 kts 200°
2026-05-06 05:00 56.52282 8.76873 35956 ft 424 kts 200°
2026-05-06 05:01 56.46620 8.73909 35957 ft 423 kts 200°
2026-05-06 05:01 56.40966 8.70961 35956 ft 423 kts 200°
2026-05-06 05:02 56.35301 8.68018 35958 ft 423 kts 200°
2026-05-06 05:02 56.29640 8.65085 35956 ft 423 kts 200°
2026-05-06 05:03 56.23980 8.62161 35949 ft 423 kts 200°
2026-05-06 05:03 56.18312 8.59242 35969 ft 424 kts 200°
2026-05-06 05:04 56.12682 8.56350 35973 ft 424 kts 200°
2026-05-06 05:04 56.07008 8.53446 35968 ft 424 kts 199°
2026-05-06 05:05 56.01326 8.50559 35970 ft 424 kts 199°
2026-05-06 05:05 55.95648 8.47683 35967 ft 424 kts 199°
2026-05-06 05:06 55.89969 8.44811 35967 ft 424 kts 199°
2026-05-06 05:06 55.84170 8.42405 35965 ft 429 kts 189°
2026-05-06 05:07 55.78197 8.42622 35958 ft 439 kts 175°
2026-05-06 05:07 55.72156 8.44769 35957 ft 440 kts 173°
2026-05-06 05:08 55.66151 8.46884 35964 ft 440 kts 174°
2026-05-06 05:08 55.60159 8.47598 35975 ft 426 kts 195°
2026-05-06 05:08 55.57372 8.45972 35973 ft 421 kts 207°
2026-05-06 05:09 55.54868 8.43362 35967 ft 418 kts 219°
2026-05-06 05:09 55.50903 8.35913 35967 ft 417 kts 230°
2026-05-06 05:10 55.47191 8.28120 35964 ft 418 kts 229°
2026-05-06 05:10 55.43372 8.20378 35961 ft 419 kts 227°
2026-05-06 05:11 55.38911 8.13806 35958 ft 421 kts 212°
2026-05-06 05:11 55.33831 8.08682 35957 ft 422 kts 211°
2026-05-06 05:12 55.28730 8.03564 35960 ft 422 kts 211°
2026-05-06 05:12 55.23641 7.98417 35956 ft 423 kts 211°
2026-05-06 05:13 55.19408 7.94130 35959 ft 423 kts 211°
2026-05-06 05:13 55.14277 7.88945 35959 ft 423 kts 211°
2026-05-06 05:14 55.09212 7.83842 35957 ft 423 kts 211°
2026-05-06 05:14 55.04106 7.78713 35952 ft 424 kts 211°
2026-05-06 05:15 54.98776 7.74324 35954 ft 426 kts 200°
2026-05-06 05:15 54.92956 7.72171 35945 ft 429 kts 193°
2026-05-06 05:16 54.87086 7.70328 35941 ft 429 kts 193°
2026-05-06 05:16 54.81213 7.68427 35943 ft 429 kts 193°
2026-05-06 05:17 54.75348 7.66506 35937 ft 429 kts 193°
2026-05-06 05:17 54.69479 7.64589 35935 ft 429 kts 193°
2026-05-06 05:18 54.63586 7.62678 36092 ft 431 kts 193°
2026-05-06 05:18 54.60641 7.61728 36255 ft 431 kts 193°
2026-05-06 05:18 54.57694 7.60778 36374 ft 432 kts 192°
2026-05-06 05:19 54.51774 7.58872 36594 ft 433 kts 192°
2026-05-06 05:19 54.48774 7.57908 36717 ft 434 kts 192°
2026-05-06 05:19 54.45842 7.56968 36814 ft 435 kts 192°
2026-05-06 05:19 54.42830 7.56002 36925 ft 435 kts 192°
2026-05-06 05:20 54.39850 7.55049 37043 ft 436 kts 192°
2026-05-06 05:20 54.36868 7.54096 37145 ft 436 kts 192°
2026-05-06 05:20 54.33883 7.53144 37249 ft 437 kts 192°
2026-05-06 05:20 54.30891 7.52191 37373 ft 438 kts 192°
2026-05-06 05:21 54.27896 7.51238 37451 ft 438 kts 192°
2026-05-06 05:21 54.21893 7.49332 37649 ft 440 kts 192°
2026-05-06 05:22 54.15916 7.47436 37869 ft 438 kts 192°
2026-05-06 05:22 54.09890 7.45521 37911 ft 438 kts 192°
2026-05-06 05:23 54.03921 7.43628 37913 ft 440 kts 192°
2026-05-06 05:23 53.94855 7.40583 37895 ft 441 kts 198°
2026-05-06 05:24 53.89168 7.36924 37894 ft 440 kts 204°
2026-05-06 05:24 53.83916 7.31690 37880 ft 439 kts 219°
2026-05-06 05:25 53.79315 7.24884 37890 ft 439 kts 221°
2026-05-06 05:25 53.74693 7.18132 37888 ft 440 kts 220°
2026-05-06 05:26 53.70020 7.11462 37891 ft 440 kts 220°
2026-05-06 05:26 53.65338 7.04815 37886 ft 440 kts 220°
2026-05-06 05:27 53.60655 6.98168 37880 ft 440 kts 220°
2026-05-06 05:27 53.56000 6.91576 37879 ft 440 kts 220°
2026-05-06 05:28 53.51439 6.84696 37875 ft 441 kts 223°
2026-05-06 05:28 53.46951 6.77673 37883 ft 441 kts 223°
2026-05-06 05:29 53.42448 6.70675 37871 ft 441 kts 222°
2026-05-06 05:29 53.37929 6.63723 37859 ft 442 kts 222°
2026-05-06 05:30 53.33391 6.56787 37857 ft 442 kts 222°
2026-05-06 05:30 53.28847 6.49867 37865 ft 442 kts 222°
2026-05-06 05:31 53.24293 6.42950 37861 ft 442 kts 222°
2026-05-06 05:31 53.19736 6.36049 37852 ft 443 kts 222°
2026-05-06 05:32 53.15174 6.29160 37857 ft 443 kts 222°
2026-05-06 05:32 53.10603 6.22279 37864 ft 443 kts 222°
2026-05-06 05:33 53.06026 6.15409 37852 ft 443 kts 221°
2026-05-06 05:33 53.01437 6.08543 37864 ft 444 kts 221°
2026-05-06 05:34 52.96845 6.01692 37874 ft 444 kts 221°
2026-05-06 05:34 52.92242 5.94844 37863 ft 445 kts 221°
2026-05-06 05:35 52.87632 5.88007 37856 ft 445 kts 221°
2026-05-06 05:35 52.83008 5.81170 37859 ft 446 kts 221°
2026-05-06 05:36 52.78378 5.74345 37870 ft 446 kts 221°
2026-05-06 05:36 52.73741 5.67527 37863 ft 447 kts 221°
2026-05-06 05:37 52.69096 5.60721 37853 ft 447 kts 221°
2026-05-06 05:37 52.64445 5.53923 37852 ft 447 kts 221°
2026-05-06 05:38 52.59789 5.47140 37860 ft 447 kts 221°
2026-05-06 05:38 52.55120 5.40356 37861 ft 448 kts 221°
2026-05-06 05:39 52.50450 5.33593 37850 ft 448 kts 221°
2026-05-06 05:39 52.45827 5.26915 37863 ft 448 kts 221°
2026-05-06 05:40 52.41145 5.20172 37858 ft 449 kts 221°
2026-05-06 05:40 52.36449 5.13426 37854 ft 449 kts 221°
2026-05-06 05:41 52.31438 5.07378 37846 ft 449 kts 207°
2026-05-06 05:41 52.25808 5.02943 37848 ft 449 kts 206°
2026-05-06 05:42 52.20162 4.98564 37851 ft 450 kts 206°
2026-05-06 05:42 52.14522 4.94125 37860 ft 450 kts 206°
2026-05-06 05:43 52.08884 4.89667 37861 ft 450 kts 206°
2026-05-06 05:43 52.03246 4.85219 37844 ft 451 kts 206°
2026-05-06 05:44 51.97599 4.80777 37849 ft 451 kts 206°
2026-05-06 05:44 51.91946 4.76346 37858 ft 452 kts 206°
2026-05-06 05:45 51.86290 4.71896 37860 ft 452 kts 206°
2026-05-06 05:45 51.80635 4.67469 37845 ft 452 kts 206°
2026-05-06 05:46 51.74963 4.63092 37858 ft 452 kts 206°
2026-05-06 05:46 51.69292 4.58721 37855 ft 452 kts 206°
2026-05-06 05:47 51.63623 4.54350 37851 ft 452 kts 206°
2026-05-06 05:47 51.57924 4.49938 37859 ft 452 kts 206°
2026-05-06 05:48 51.52262 4.45565 37861 ft 451 kts 206°
2026-05-06 05:48 51.46601 4.41207 37857 ft 451 kts 206°
2026-05-06 05:49 51.40937 4.36860 37858 ft 451 kts 206°
2026-05-06 05:49 51.35245 4.32584 37859 ft 452 kts 205°
2026-05-06 05:50 51.29555 4.28340 37856 ft 452 kts 205°
2026-05-06 05:50 51.23882 4.24013 37847 ft 452 kts 206°
2026-05-06 05:51 51.18204 4.19691 37859 ft 452 kts 205°
2026-05-06 05:51 51.12377 4.15939 37865 ft 452 kts 199°
2026-05-06 05:52 51.07411 4.13320 37853 ft 453 kts 198°
2026-05-06 05:52 51.01431 4.10154 37841 ft 453 kts 199°
2026-05-06 05:53 50.95461 4.06913 37848 ft 453 kts 199°
2026-05-06 05:53 50.89497 4.03667 37849 ft 454 kts 199°
2026-05-06 05:54 50.83582 4.00169 37849 ft 454 kts 202°
2026-05-06 05:54 50.77742 3.96342 37844 ft 454 kts 203°
2026-05-06 05:55 50.71898 3.92542 37842 ft 454 kts 202°
2026-05-06 05:55 50.66039 3.88795 37846 ft 455 kts 202°
2026-05-06 05:56 50.60173 3.85064 37849 ft 453 kts 202°
2026-05-06 05:56 50.54489 3.81380 37849 ft 438 kts 204°
2026-05-06 05:57 50.49630 3.78030 37828 ft 435 kts 204°
2026-05-06 05:57 50.46838 3.76100 37349 ft 440 kts 204°
2026-05-06 05:57 50.44049 3.74187 36826 ft 437 kts 204°
2026-05-06 05:58 50.41265 3.72292 36300 ft 435 kts 204°
2026-05-06 05:58 50.38482 3.70445 35704 ft 435 kts 199°
2026-05-06 05:58 50.35515 3.69568 35059 ft 436 kts 180°
2026-05-06 05:58 50.32503 3.70063 34433 ft 438 kts 166°
2026-05-06 05:59 50.29664 3.71775 33759 ft 440 kts 150°
2026-05-06 05:59 50.27056 3.74276 33045 ft 440 kts 147°
2026-05-06 05:59 50.24488 3.76892 32299 ft 441 kts 146°
2026-05-06 05:59 50.21922 3.79511 31681 ft 439 kts 146°
2026-05-06 06:00 50.19371 3.82074 31211 ft 434 kts 146°
2026-05-06 06:00 50.16833 3.84582 30711 ft 430 kts 146°
2026-05-06 06:00 50.14347 3.87014 30251 ft 426 kts 146°
2026-05-06 06:00 50.11849 3.89449 29771 ft 423 kts 147°
2026-05-06 06:01 50.09198 3.91425 29190 ft 423 kts 162°
2026-05-06 06:01 50.06313 3.92231 28760 ft 421 kts 171°
2026-05-06 06:01 50.03411 3.92709 28216 ft 418 kts 172°
2026-05-06 06:01 50.00531 3.93129 27762 ft 413 kts 172°
2026-05-06 06:02 49.97687 3.93545 27288 ft 409 kts 172°
2026-05-06 06:02 49.94868 3.93976 26809 ft 406 kts 172°
2026-05-06 06:02 49.92078 3.94423 26346 ft 402 kts 172°
2026-05-06 06:02 49.89302 3.94880 25888 ft 401 kts 172°
2026-05-06 06:03 49.86515 3.95348 25443 ft 406 kts 172°
2026-05-06 06:03 49.83702 3.95821 24980 ft 405 kts 172°
2026-05-06 06:03 49.80911 3.96290 24505 ft 402 kts 172°
2026-05-06 06:03 49.78140 3.96754 24041 ft 400 kts 172°
2026-05-06 06:04 49.75382 3.97217 23548 ft 398 kts 173°
2026-05-06 06:04 49.72630 3.97678 23026 ft 396 kts 173°
2026-05-06 06:04 49.69903 3.98134 22528 ft 393 kts 173°
2026-05-06 06:04 49.67189 3.98586 22052 ft 390 kts 173°
2026-05-06 06:05 49.64504 3.99033 21604 ft 386 kts 173°
2026-05-06 06:05 49.61813 3.99480 21139 ft 382 kts 174°
2026-05-06 06:05 49.59218 3.99343 20708 ft 378 kts 193°
2026-05-06 06:05 49.56818 3.97836 20301 ft 372 kts 212°
2026-05-06 06:06 49.54850 3.95288 19868 ft 369 kts 230°
2026-05-06 06:06 49.53382 3.92075 19456 ft 365 kts 237°
2026-05-06 06:06 49.52022 3.88729 19012 ft 363 kts 238°
2026-05-06 06:06 49.50685 3.85445 18583 ft 361 kts 237°
2026-05-06 06:07 49.49352 3.82244 18160 ft 358 kts 236°
2026-05-06 06:07 49.48003 3.79038 17681 ft 356 kts 238°
2026-05-06 06:07 49.46998 3.75590 17219 ft 354 kts 254°
2026-05-06 06:07 49.46419 3.71881 16804 ft 350 kts 256°
2026-05-06 06:08 49.45855 3.68303 16377 ft 348 kts 255°
2026-05-06 06:08 49.45258 3.64667 15956 ft 345 kts 255°
2026-05-06 06:08 49.44662 3.61120 15684 ft 338 kts 255°
2026-05-06 06:08 49.44074 3.57658 15502 ft 332 kts 255°
2026-05-06 06:09 49.43503 3.54298 15319 ft 329 kts 255°
2026-05-06 06:09 49.42915 3.50847 15148 ft 338 kts 255°
2026-05-06 06:09 49.42308 3.47291 14957 ft 342 kts 255°
2026-05-06 06:09 49.41664 3.43822 14772 ft 341 kts 251°
2026-05-06 06:10 49.40827 3.40431 14622 ft 338 kts 248°
2026-05-06 06:10 49.39920 3.37113 14476 ft 337 kts 247°
2026-05-06 06:10 49.38999 3.33812 14326 ft 335 kts 247°
2026-05-06 06:10 49.38088 3.30536 14180 ft 334 kts 247°
2026-05-06 06:11 49.37186 3.27259 14029 ft 333 kts 248°
2026-05-06 06:11 49.36291 3.23984 13882 ft 332 kts 248°
2026-05-06 06:11 49.35403 3.20717 13743 ft 332 kts 248°
2026-05-06 06:11 49.34517 3.17447 13593 ft 332 kts 248°
2026-05-06 06:12 49.33636 3.14188 13424 ft 331 kts 248°
2026-05-06 06:12 49.32753 3.10924 13276 ft 331 kts 248°
2026-05-06 06:12 49.31871 3.07667 13122 ft 331 kts 248°
2026-05-06 06:12 49.30990 3.04414 12974 ft 330 kts 248°
2026-05-06 06:13 49.30109 3.01170 12831 ft 330 kts 248°
2026-05-06 06:13 49.29229 2.97929 12671 ft 330 kts 248°
2026-05-06 06:13 49.28349 2.94693 12543 ft 329 kts 248°
2026-05-06 06:13 49.27466 2.91453 12389 ft 329 kts 248°
2026-05-06 06:14 49.26585 2.88223 12242 ft 329 kts 248°
2026-05-06 06:14 49.25701 2.84987 12105 ft 329 kts 248°
2026-05-06 06:14 49.24820 2.81766 11946 ft 329 kts 248°
2026-05-06 06:14 49.23933 2.78528 11820 ft 329 kts 248°
2026-05-06 06:15 49.23046 2.75293 11676 ft 330 kts 247°
2026-05-06 06:15 49.22155 2.72046 11522 ft 331 kts 247°
2026-05-06 06:15 49.21251 2.68759 11370 ft 331 kts 247°
2026-05-06 06:15 49.20362 2.65529 11201 ft 326 kts 247°
2026-05-06 06:16 49.19505 2.62422 11055 ft 317 kts 247°
2026-05-06 06:16 49.18649 2.59324 10906 ft 308 kts 247°
2026-05-06 06:16 49.18023 2.56251 10691 ft 302 kts 264°
2026-05-06 06:16 49.17938 2.53071 10445 ft 298 kts 269°
2026-05-06 06:17 49.17908 2.49922 10169 ft 296 kts 269°
2026-05-06 06:17 49.17866 2.46792 9884 ft 294 kts 269°
2026-05-06 06:17 49.17809 2.43702 9775 ft 286 kts 268°
2026-05-06 06:17 49.17744 2.40632 9351 ft 290 kts 269°
2026-05-06 06:18 49.17674 2.37561 9057 ft 288 kts 269°
2026-05-06 06:18 49.17544 2.34558 8769 ft 287 kts 265°
2026-05-06 06:18 49.17339 2.31540 8565 ft 282 kts 265°
2026-05-06 06:18 49.17137 2.28671 8478 ft 261 kts 265°
2026-05-06 06:19 49.16955 2.26002 8322 ft 244 kts 266°
2026-05-06 06:19 49.16788 2.23509 8182 ft 228 kts 267°
2026-05-06 06:19 49.16633 2.21160 7846 ft 222 kts 267°
2026-05-06 06:19 49.16480 2.18819 7497 ft 217 kts 267°
2026-05-06 06:20 49.16331 2.16572 7248 ft 207 kts 268°
2026-05-06 06:20 49.16125 2.14444 7024 ft 202 kts 253°
2026-05-06 06:20 49.15217 2.12889 6846 ft 201 kts 204°
2026-05-06 06:20 49.13836 2.12696 6650 ft 202 kts 171°
2026-05-06 06:21 49.12428 2.12953 6437 ft 206 kts 174°
2026-05-06 06:21 49.11004 2.13173 6181 ft 204 kts 174°
2026-05-06 06:21 49.09604 2.13385 5930 ft 201 kts 173°
2026-05-06 06:21 49.08225 2.13593 5711 ft 197 kts 174°
2026-05-06 06:22 49.06871 2.13812 5498 ft 195 kts 172°
2026-05-06 06:22 49.05586 2.14289 5467 ft 187 kts 158°
2026-05-06 06:22 49.04390 2.15187 5281 ft 197 kts 145°
2026-05-06 06:22 49.03317 2.16501 5041 ft 198 kts 130°
2026-05-06 06:23 49.02524 2.18151 4859 ft 190 kts 115°
2026-05-06 06:23 49.02002 2.19965 4651 ft 185 kts 104°
2026-05-06 06:23 49.01681 2.21834 4409 ft 179 kts 96°
2026-05-06 06:23 49.01459 2.23648 4174 ft 170 kts 92°
2026-05-06 06:24 49.01355 2.25414 3940 ft 166 kts 87°
2026-05-06 06:24 49.01299 2.27182 3714 ft 168 kts 86°
2026-05-06 06:24 49.01293 2.28960 3490 ft 167 kts 83°
2026-05-06 06:24 49.01350 2.30718 3264 ft 165 kts 81°
2026-05-06 06:25 49.01429 2.32462 3040 ft 165 kts 80°
2026-05-06 06:25 49.01512 2.34176 2823 ft 160 kts 79°
2026-05-06 06:25 49.01690 2.37581 2401 ft 155 kts 77°
2026-05-06 06:26 49.01770 2.39165 2172 ft 146 kts 77°
2026-05-06 06:26 49.01851 2.40693 1971 ft 145 kts 77°
2026-05-06 06:26 49.01932 2.42237 1777 ft 146 kts 78°
2026-05-06 06:26 49.02012 2.43777 1561 ft 144 kts 77°
2026-05-06 06:27 49.02095 2.45310 1377 ft 147 kts 78°
2026-05-06 06:27 49.02175 2.46863 1162 ft 148 kts 79°
2026-05-06 06:27 49.02259 2.48455 940 ft 152 kts 81°
2026-05-06 06:27 49.02345 2.50059 747 ft 154 kts 79°
2026-05-06 06:28 49.02427 2.51697 546 ft 155 kts 81°
2026-05-06 06:28 49.02508 2.53306 389 ft 149 kts 79°
2026-05-06 06:28 49.02596 2.54754 356 ft 115 kts 86°
2026-05-06 06:28 49.02637 2.55604 356 ft 45 kts 88°
2026-05-06 06:29 49.02544 2.55923 358 ft 29 kts 155°
2026-05-06 06:29 49.02389 2.55957 360 ft 18 kts 176°
2026-05-06 06:29 49.02282 2.55967 357 ft 14 kts 177°
2026-05-06 06:29 49.02166 2.55974 354 ft 17 kts 177°
2026-05-06 06:30 49.02086 2.55876 357 ft 18 kts 262°
2026-05-06 06:30 49.02075 2.55670 360 ft 22 kts 265°
2026-05-06 06:30 49.02060 2.55418 357 ft 26 kts 265°
2026-05-06 06:30 49.02045 2.55150 361 ft 25 kts 265°
2026-05-06 06:31 49.02031 2.54900 361 ft 23 kts 265°
2026-05-06 06:31 49.02019 2.54661 354 ft 22 kts 265°
2026-05-06 06:31 49.02008 2.54428 358 ft 22 kts 266°
2026-05-06 06:31 49.01985 2.54206 356 ft 21 kts 238°
2026-05-06 06:32 49.01897 2.54037 357 ft 20 kts 257°
2026-05-06 06:32 49.01884 2.53824 358 ft 20 kts 265°
2026-05-06 06:32 49.01872 2.53614 358 ft 21 kts 265°
2026-05-06 06:32 49.01857 2.53335 354 ft 30 kts 266°
2026-05-06 06:33 49.01849 2.53107 354 ft 17 kts 265°
2026-05-06 06:33 49.01841 2.52984 357 ft 17 kts 263°
2026-05-06 06:33 49.01817 2.52772 355 ft 9 kts 229°
2026-05-06 06:33 49.01772 2.52757 357 ft 14 kts 181°
2026-05-06 06:34 49.01725 2.52557 353 ft 22 kts 266°
2026-05-06 06:34 49.01714 2.52322 360 ft 22 kts 266°
2026-05-06 06:34 49.01703 2.52110 358 ft 14 kts 267°
2026-05-06 06:34 49.01703 2.52089 358 ft 0 kts 268°
2026-05-06 06:36 49.01702 2.52055 360 ft 11 kts 269°
2026-05-06 06:36 49.01702 2.51905 360 ft 15 kts 269°
2026-05-06 06:36 49.01691 2.51752 353 ft 15 kts 261°
2026-05-06 06:37 49.01673 2.51546 349 ft 22 kts 264°
2026-05-06 06:37 49.01652 2.51338 356 ft 13 kts 239°
2026-05-06 06:37 49.01556 2.51295 354 ft 21 kts 180°
2026-05-06 06:37 49.01468 2.51137 354 ft 23 kts 260°
2026-05-06 06:38 49.01456 2.50902 357 ft 22 kts 265°
2026-05-06 06:38 49.01442 2.50686 349 ft 19 kts 266°
2026-05-06 06:38 49.01436 2.50512 349 ft 14 kts 268°
2026-05-06 06:38 49.01427 2.50369 354 ft 9 kts 275°
2026-05-06 06:39 49.01476 2.50325 353 ft 8 kts 354°
2026-05-06 06:39 49.01499 2.50322 349 ft 0 kts 355°